Powrót do katalogu

CZ-3 DEB

LostHEO
NORAD 38673·DEBRIS·🇨🇳 China

Wystrzelony Feb 1, 1986 z Xichang Satellite Launch Center

Loading…

Następne Przeloty (najbliższe 24 godziny)

TLE

NieaktualneSource: Space-Track

Epoka: Jun 21, 2026, 03:32 UTC

1 38673U 86010H   26172.14788949  .00004414  00000-0  69548-2 0  9997
2 38673  30.7691  48.0426 6489168 230.7814  51.2080  3.23205497  1479

Śledź CZ-3 DEB w czasie rzeczywistym z AllMySat

Download on the App Store